This demonstration page uses our WeatherBlox Daily Observations layout. Learn more.

Left ArrowRight Arrow

Hourly Observations for August 16, 2020

Temp ( °F °C ) Dew Point ( °F °C ) Humidity (%) Winds ( mph kmh ) Pressure ( in mb ) Visibility ( mi km ) Precip ( " mm )
12:53 am 00:53 Clear 72 22.2 68 20 87 87 E 6 9 29.93 1013 10 16.0934 N/A
1:53 am 01:53 Clear 70 21.1 67 19.4 90 90 E 3 6 29.94 1014 10 16.0934 N/A
2:53 am 02:53 Clear 69 20.6 67 19.4 93 93 N N/A 29.93 1014 10 16.0934 N/A
3:53 am 03:53 Clear 68 20 66 18.9 93 93 N N/A 29.92 1013 10 16.0934 N/A
4:53 am 04:53 Clear 68 20 66 18.9 93 93 N N/A 29.91 1013 10 16.0934 N/A
5:53 am 05:53 Clear 66 18.9 65 18.3 96 96 N N/A 29.92 1013 7 11.26538 N/A
6:53 am 06:53 Sunny 67 19.4 66 18.9 97 97 N N/A 29.93 1014 7 11.26538 N/A
7:53 am 07:53 Mostly Sunny 69 20.6 67 19.4 93 93 N N/A 29.94 1014 8 12.87472 N/A
8:53 am 08:53 Mostly Sunny 72 22.2 68 20 87 87 N N/A 29.95 1014 9 14.48406 N/A
9:53 am 09:53 Sunny 76 24.4 70 21.1 82 82 SSE 5 7 29.94 1014 10 16.0934 N/A
10:53 am 10:53 Mostly Sunny 79 26.1 70 21.1 74 74 VRB 3 6 29.94 1014 10 16.0934 N/A
11:53 am 11:53 Mostly Cloudy 80 26.7 70 21.1 71 71 W 8 13 29.95 1014 10 16.0934 N/A
12:53 pm 12:53 Partly Cloudy 83 28.3 70 21.1 65 65 WNW 15 24 29.95 1014 10 16.0934 N/A
1:53 pm 13:53 Mostly Cloudy 82 27.8 69 20.6 65 65 NW 10 17 29.95 1014 10 16.0934 N/A
2:53 pm 14:53 Partly Cloudy 85 29.4 66 18.9 53 53 NW 16 26 29.95 1014 10 16.0934 N/A
3:53 pm 15:53 Sunny 86 30 63 17.2 46 46 NNW 14 22 29.93 1014 10 16.0934 N/A
4:53 pm 16:53 Partly Cloudy 82 27.8 61 16.1 49 49 N 9 15 29.93 1014 10 16.0934 N/A
5:53 pm 17:53 Partly Cloudy 84 28.9 63 17.2 49 49 NW 9 15 29.94 1014 10 16.0934 N/A
6:53 pm 18:53 Sunny 82 27.8 61 16.1 49 49 NNW 10 17 29.94 1014 10 16.0934 N/A
7:53 pm 19:53 Sunny 79 26.1 61 16.1 54 54 NW 10 17 29.95 1014 10 16.0934 N/A
8:53 pm 20:53 Clear 73 22.8 60 15.6 64 64 NW 8 13 29.96 1015 10 16.0934 N/A
9:53 pm 21:53 Clear 69 20.6 60 15.6 73 73 N 6 9 29.98 1015 10 16.0934 N/A
10:53 pm 22:53 Clear 65 18.3 60 15.6 84 84 N N/A 29.98 1015 10 16.0934 N/A
11:53 pm 23:53 Clear 63 17.2 60 15.6 90 90 N N/A 29.99 1016 10 16.0934 N/A

Powered by AerisWeather